KF5DKO Weather Reports


time (UTC)temp
C
wind
direction
speed
KPH
gust
KPH
rain 1hr
cm
rain 24hr
cm
rain mn
cm
humidity
%
barometer
mb
20260510180108 26 101 8.0 20.9 0.00 0.43 0.00 87 1014.3
20260510175550 26 118 8.0 20.9 0.00 0.66 0.00 87 1014.4
20260510175050 26 103 4.8 14.5 0.00 0.66 0.00 87 1014.4
20260510174550 26 132 4.8 14.5 0.00 0.66 0.00 87 1014.4
20260510174050 26 115 6.4 16.1 0.00 0.66 0.00 87 1014.6
20260510173549 26 89 6.4 16.1 0.00 0.66 0.00 86 1014.6
20260510173049 26 95 8.0 16.1 0.00 0.66 0.00 86 1014.6
20260510172551 26 118 6.4 16.1 0.00 0.66 0.00 88 1014.8
20260510172047 26 103 8.0 14.5 0.00 0.66 0.00 87 1014.8
20260510171601 26 86 4.8 14.5 0.00 0.66 0.00 89 1014.8
20260510171050 26 119 6.4 14.5 0.00 0.66 0.00 87 1015.1
20260510170550 26 111 1.6 11.3 0.00 0.66 0.00 87 1015.1
20260510170046 26 115 3.2 14.5 0.00 0.66 0.00 89 1015.1
20260510165545 26 106 4.8 14.5 0.00 2.31 0.00 89 1015.0
20260510165043 26 138 6.4 12.9 0.00 2.31 0.00 87 1015.0
20260510164543 25 97 8.0 14.5 0.00 2.31 0.00 88 1015.0
20260510164041 25 138 6.4 11.3 0.00 2.31 0.00 90 1015.0
20260510163540 25 132 8.0 12.9 0.00 2.31 0.00 91 1015.0
20260510163040 25 105 3.2 12.9 0.00 2.31 0.00 93 1015.0
20260510162539 25 111 8.0 12.9 0.00 2.31 0.00 92 1015.0
20260510162037 24 101 3.2 11.3 0.00 2.31 0.00 93 1015.0
20260510161536 24 105 3.2 9.7 0.00 2.31 0.00 93 1015.0
20260510161038 24 101 1.6 11.3 0.00 2.31 0.00 93 1015.1
20260510160535 24 98 4.8 11.3 0.00 2.31 0.00 94 1015.1
20260510160042 23 108 1.6 11.3 0.00 2.31 0.00 95 1015.1
20260510155535 23 113 3.2 12.9 0.00 2.72 0.00 95 1015.3
20260510155033 23 103 4.8 12.9 0.00 2.72 0.00 94 1015.3
20260510154550 23 113 3.2 11.3 0.00 2.72 0.00 94 1015.3
20260510154032 23 110 4.8 11.3 0.00 2.72 0.00 94 1015.2
20260510153532 23 98 1.6 14.5 0.00 2.72 0.00 94 1015.2
20260510153045 23 98 8.0 14.5 0.00 2.72 0.00 93 1015.2
20260510152532 23 117 4.8 12.9 0.00 2.72 0.00 93 1015.2
20260510152031 23 101 1.6 16.1 0.00 2.72 0.00 93 1015.2
20260510151531 23 25 3.2 16.1 0.00 2.72 0.00 94 1015.2
20260510151031 23 96 4.8 16.1 0.00 2.72 0.00 94 1015.2
20260510150531 23 116 8.0 17.7 0.00 2.72 0.00 95 1015.2
20260510150032 23 99 8.0 16.1 0.00 2.72 0.00 95 1015.2
20260510145527 23 97 0.0 14.5 0.00 3.53 0.00 95 1015.3
20260510145027 23 75 0.0 11.3 0.00 3.53 0.00 96 1015.3
20260510144544 22 65 1.6 12.9 0.00 3.53 0.00 96 1015.3
20260510144026 22 98 0.0 12.9 0.00 3.53 0.00 96 1015.3
20260510143528 22 91 1.6 14.5 0.00 3.53 0.00 97 1015.3
20260510143024 22 102 4.8 14.5 0.00 3.53 0.00 97 1015.3
20260510142527 22 81 0.0 14.5 0.00 3.53 0.00 98 1015.0
20260510142022 22 108 1.6 14.5 0.00 3.53 0.00 99 1015.0
20260510141521 22 121 1.6 16.1 0.00 3.53 0.00 100 1015.0
20260510141020 21 83 1.6 12.9 0.00 3.53 0.00 100 1014.9
20260510140519 21 101 1.6 11.3 0.00 3.53 0.00 100 1014.9
20260510140019 21 96 1.6 9.7 0.00 3.53 0.00 100 1014.9
20260510135517 21 112 0.0 14.5 0.00 3.56 0.00 100 1014.8
20260510135016 21 113 0.0 16.1 0.00 3.56 0.00 100 1014.8
20260510134516 21 102 6.4 16.1 0.00 3.56 0.00 100 1014.8
20260510134019 21 94 8.0 14.5 0.00 3.56 0.00 100 1014.8
20260510133514 21 98 1.6 14.5 0.00 3.56 0.00 100 1014.8
20260510133014 20 88 1.6 14.5 0.00 3.56 0.00 100 1014.8
20260510132514 20 105 3.2 8.0 0.00 3.56 0.00 100 1014.5
20260510132013 20 90 0.0 8.0 0.00 3.56 0.00 100 1014.5
20260510131511 20 87 0.0 6.4 0.00 3.56 0.00 100 1014.5
20260510131013 20 88 0.0 6.4 0.00 3.56 0.00 100 1014.3
20260510130511 20 78 0.0 1.6 0.00 3.56 0.00 100 1014.3
20260510130011 20 78 0.0 3.2 0.00 3.56 0.00 100 1014.3
20260510125510 20 77 0.0 3.2 0.00 3.56 0.00 100 1013.9
20260510125010 20 78 0.0 3.2 0.00 3.56 0.00 100 1013.9
20260510124513 20 78 0.0 4.8 0.00 3.56 0.00 100 1013.9
20260510124010 20 79 0.0 4.8 0.00 3.56 0.00 100 1013.6
20260510123510 20 74 0.0 1.6 0.00 3.56 0.00 100 1013.6
20260510123007 20 74 0.0 3.2 0.00 3.56 0.00 100 1013.6
20260510122506 19 74 0.0 4.8 0.00 3.56 0.00 100 1013.4
20260510122006 19 76 0.0 4.8 0.00 3.56 0.00 100 1013.4
20260510121506 19 76 0.0 1.6 0.00 3.56 0.00 100 1013.4
20260510121006 19 76 0.0 1.6 0.00 3.56 0.00 100 1013.3
20260510120506 18 76 0.0 0.0 0.00 3.56 0.00 100 1013.3
20260510120012 18 76 0.0 1.6 0.00 3.56 0.00 100 1013.3
20260510115506 18 76 0.0 1.6 0.00 3.56 0.00 100 1013.1
20260510115005 18 77 0.0 3.2 0.00 3.56 0.00 100 1013.1
20260510114505 18 77 0.0 3.2 0.00 3.56 0.00 100 1013.1
20260510114005 18 42 0.0 0.0 0.00 3.56 0.00 100 1012.8
20260510113504 18 42 0.0 0.0 0.00 3.56 0.00 100 1012.8
20260510113004 18 42 0.0 0.0 0.00 3.56 0.00 100 1012.8
20260510112503 18 42 0.0 0.0 0.00 3.56 0.00 100 1012.7
20260510112002 18 42 0.0 0.0 0.00 3.56 0.00 100 1012.7
20260510111501 18 42 0.0 0.0 0.00 3.56 0.00 100 1012.7
20260510111003 18 42 0.0 0.0 0.00 3.56 0.00 100 1012.2
20260510110501 18 42 0.0 0.0 0.00 3.56 0.00 100 1012.2
20260510110003 18 42 0.0 0.0 0.00 3.56 0.00 100 1012.2
20260510105501 18 42 0.0 0.0 0.00 3.56 0.00 100 1012.1
20260510105001 18 42 0.0 0.0 0.00 3.56 0.00 100 1012.1
20260510104500 18 42 0.0 0.0 0.00 3.56 0.00 100 1012.1
20260510104100 18 42 0.0 0.0 0.00 3.56 0.00 100 1011.7
20260510103600 18 42 0.0 0.0 0.00 3.56 0.00 100 1011.7
20260510103101 18 42 0.0 0.0 0.00 3.56 0.00 100 1011.7
20260510102600 18 42 0.0 0.0 0.00 3.56 0.00 100 1011.7
20260510102100 18 42 0.0 0.0 0.00 3.56 0.00 100 1011.7
20260510101604 18 42 0.0 0.0 0.00 3.56 0.00 100 1011.7
20260510101059 18 42 0.0 0.0 0.00 3.56 0.00 100 1011.6
20260510100559 18 42 0.0 0.0 0.00 3.56 0.00 100 1011.6
20260510100059 18 42 0.0 0.0 0.00 3.56 0.00 100 1011.6
20260510095559 18 42 0.0 0.0 0.00 3.56 0.00 100 1011.7
20260510095059 18 42 0.0 0.0 0.00 3.56 0.00 100 1011.7
20260510094614 18 42 0.0 0.0 0.00 3.56 0.00 100 1011.7
20260510094059 18 42 0.0 0.0 0.00 3.56 0.00 100 1011.7
20260510093558 18 42 0.0 0.0 0.00 3.56 0.00 100 1011.7
20260510093058 18 42 0.0 0.0 0.00 3.56 0.00 100 1011.7
20260510092559 18 42 0.0 0.0 0.00 3.56 0.00 100 1011.5
20260510092056 18 42 0.0 0.0 0.00 3.56 0.00 100 1011.5
20260510091557 18 42 0.0 0.0 0.00 3.56 0.00 100 1011.5
20260510091056 18 42 0.0 0.0 0.00 3.56 0.00 100 1011.6
20260510090556 18 42 0.0 0.0 0.00 3.56 0.00 100 1011.6
20260510090056 18 42 0.0 0.0 0.00 3.56 0.00 100 1011.6
20260510085555 18 42 0.0 0.0 0.00 3.56 0.00 100 1011.6
20260510085056 18 42 0.0 0.0 0.00 3.56 0.00 100 1011.6
20260510084602 18 42 0.0 0.0 0.00 3.56 0.00 100 1011.6
20260510084056 18 42 0.0 0.0 0.00 3.56 0.00 100 1011.3
20260510083556 18 42 0.0 0.0 0.00 3.56 0.00 99 1011.3
20260510083114 18 42 0.0 0.0 0.00 3.56 0.00 99 1011.3
20260510082554 18 42 0.0 0.0 0.00 3.56 0.00 99 1011.3
20260510082053 18 42 0.0 0.0 0.00 3.56 0.00 99 1011.3
20260510081612 18 42 0.0 0.0 0.00 3.56 0.00 100 1011.3
20260510081053 18 42 0.0 0.0 0.00 3.56 0.00 99 1011.1
20260510080552 18 42 0.0 0.0 0.00 3.56 0.00 99 1011.1
20260510080052 18 42 0.0 0.0 0.00 3.56 0.00 99 1011.1
20260510075552 18 42 0.0 0.0 0.00 3.56 0.00 99 1011.0
20260510075054 18 42 0.0 0.0 0.00 3.56 0.00 99 1011.0
20260510074553 18 42 0.0 0.0 0.00 3.56 0.00 99 1011.0
20260510074053 18 42 0.0 0.0 0.00 3.56 0.00 99 1011.1
20260510073550 18 42 0.0 0.0 0.00 3.56 0.00 99 1011.1
20260510073051 18 42 0.0 0.0 0.00 3.56 0.00 99 1011.1
20260510072549 18 42 0.0 0.0 0.00 3.56 0.00 99 1011.0
20260510072049 19 42 0.0 0.0 0.00 3.56 0.00 99 1011.0
20260510071549 19 42 0.0 0.0 0.00 3.56 0.00 99 1011.0
20260510071048 19 42 0.0 0.0 0.00 3.56 0.00 99 1010.7
20260510070548 19 42 0.0 0.0 0.00 3.56 0.00 99 1010.7
20260510070048 19 42 0.0 0.0 0.00 3.56 0.00 99 1010.7
20260510065550 19 42 0.0 0.0 0.00 3.56 0.00 98 1010.7
20260510065046 19 42 0.0 0.0 0.00 3.56 0.00 98 1010.7
20260510064548 20 42 0.0 0.0 0.00 3.56 0.00 98 1010.7
20260510064045 20 42 0.0 0.0 0.00 3.56 0.00 98 1010.9
20260510063544 20 42 0.0 1.6 0.00 3.56 0.00 99 1010.9
20260510063046 20 42 0.0 6.4 0.00 3.56 0.00 99 1010.9
20260510062547 20 55 0.0 20.9 0.00 3.56 0.00 99 1010.8
20260510062045 20 171 4.8 20.9 0.00 3.56 0.00 100 1010.8
20260510061554 20 72 8.0 17.7 0.00 3.56 0.00 100 1010.8
20260510061044 20 49 4.8 11.3 0.00 3.56 0.00 100 1010.1
20260510060543 20 169 0.0 8.0 0.00 3.56 0.00 100 1010.1
20260510060046 20 166 0.0 4.8 0.00 3.56 0.00 100 1010.1
20260510055542 20 166 0.0 4.8 0.00 3.56 0.00 100 1010.3
20260510055042 20 166 0.0 4.8 0.00 3.56 0.00 100 1010.3
20260510054542 20 165 0.0 4.8 0.00 3.56 0.00 100 1010.3
20260510054042 20 165 0.0 4.8 0.00 3.56 0.00 100 1010.5
20260510053541 20 165 0.0 3.2 0.00 3.56 0.00 100 1010.5
20260510053046 20 165 0.0 4.8 0.00 3.56 0.00 100 1010.5
20260510052540 20 167 0.0 6.4 0.00 3.56 0.00 100 1010.3
20260510052040 20 166 0.0 6.4 0.00 3.56 0.00 100 1010.3
20260510051542 20 161 0.0 8.0 0.00 3.56 0.00 100 1010.3
20260510051040 20 160 0.0 12.9 0.00 3.56 0.00 100 1010.4
20260510050542 20 163 1.6 12.9 0.00 3.56 0.00 100 1010.4
20260510050039 20 147 0.0 12.9 0.00 3.56 0.00 100 1010.4
20260510045538 20 162 4.8 12.9 0.00 3.56 3.56 100 1010.6
20260510045038 20 170 0.0 12.9 0.00 3.56 3.56 100 1010.6
20260510044538 20 153 1.6 12.9 0.00 3.56 3.56 100 1010.6
20260510044037 20 155 1.6 11.3 0.00 3.56 3.56 100 1010.9
20260510043537 20 153 3.2 11.3 0.00 3.56 3.56 100 1010.9
20260510043037 20 168 0.0 8.0 0.00 3.56 3.56 100 1010.9
20260510042536 20 163 1.6 8.0 0.00 3.56 3.56 100 1011.2
20260510042040 20 175 0.0 8.0 0.00 3.56 3.56 100 1011.2
20260510041539 20 142 0.0 8.0 0.00 3.56 3.56 100 1011.2
20260510041036 20 128 0.0 3.2 0.00 3.56 3.56 100 1011.7
20260510040536 20 128 0.0 3.2 0.00 3.56 3.56 100 1011.7
20260510040036 20 128 0.0 0.0 0.00 3.56 3.56 100 1011.7
20260510035536 20 128 0.0 0.0 0.00 3.56 3.56 100 1011.8
20260510035036 20 128 0.0 1.6 0.00 3.56 3.56 100 1011.8
20260510034536 20 128 0.0 3.2 0.00 3.56 3.56 100 1011.8
20260510034036 20 128 0.0 3.2 0.00 3.56 3.56 100 1012.2
20260510033539 20 125 0.0 0.0 0.00 3.56 3.56 100 1012.2
20260510033037 20 125 0.0 0.0 0.00 3.56 3.56 100 1012.2
20260510032535 20 125 0.0 0.0 0.00 3.56 3.56 100 1012.7
20260510032037 20 125 0.0 0.0 0.00 3.56 3.56 100 1012.7
20260510031544 20 125 0.0 0.0 0.00 3.56 3.56 100 1012.7
20260510031035 20 125 0.0 0.0 0.00 3.56 3.56 100 1012.5
20260510030535 20 125 0.0 0.0 0.00 3.56 3.56 100 1012.5
20260510030037 20 125 0.0 0.0 0.00 3.56 3.56 100 1012.5
20260510025534 20 125 0.0 0.0 0.00 3.56 3.56 100 1012.4
20260510025034 20 125 0.0 0.0 0.00 3.56 3.56 100 1012.4
20260510024536 20 125 0.0 0.0 0.00 3.56 3.56 100 1012.4
20260510024033 20 125 0.0 0.0 0.00 3.56 3.56 100 1012.0
20260510023533 20 125 0.0 0.0 0.00 3.56 3.56 100 1012.0
20260510023040 20 125 0.0 0.0 0.00 3.56 3.56 100 1012.0
20260510022536 20 125 0.0 0.0 0.00 3.56 3.56 100 1011.8
20260510022033 20 125 0.0 0.0 0.00 3.56 3.56 100 1011.8
20260510021536 20 125 0.0 0.0 0.00 3.56 3.56 100 1011.8
20260510021033 20 125 0.0 0.0 0.00 3.56 3.56 100 1011.6
20260510020533 20 125 0.0 0.0 0.00 3.56 3.56 100 1011.6
20260510020033 20 125 0.0 0.0 0.00 3.56 3.56 100 1011.6
20260510015536 20 125 0.0 0.0 0.00 3.56 3.56 100 1011.5
20260510015034 20 125 0.0 1.6 0.00 3.56 3.56 100 1011.5
20260510014532 20 125 0.0 0.0 0.00 3.56 3.56 100 1011.5
20260510014032 20 125 0.0 0.0 0.00 3.56 3.56 100 1011.3
20260510013533 20 125 0.0 0.0 0.00 3.56 3.56 100 1011.3
20260510013031 20 125 0.0 1.6 0.00 3.56 3.56 100 1011.3
20260510012531 20 125 0.0 3.2 0.00 3.56 3.56 100 1010.9
20260510012031 20 125 0.0 8.0 0.00 3.56 3.56 100 1010.9
20260510011532 20 125 1.6 8.0 0.00 3.56 3.56 100 1010.9
20260510011032 20 129 0.0 8.0 0.00 3.56 3.56 100 1010.7
20260510010532 20 128 4.8 8.0 0.00 3.56 3.56 100 1010.7
20260510010031 20 130 1.6 11.3 0.00 3.56 3.56 100 1010.7
20260510005531 20 125 1.6 11.3 0.00 3.56 3.56 100 1010.6
20260510005030 20 126 4.8 11.3 0.00 3.56 3.56 100 1010.6
20260510004531 20 132 4.8 14.5 0.00 3.56 3.56 100 1010.6
20260510004030 20 127 6.4 14.5 0.00 3.56 3.56 100 1010.6
20260510003530 20 137 4.8 14.5 0.00 3.56 3.56 100 1010.6
20260510003031 20 139 6.4 16.1 0.00 3.56 3.56 100 1010.6
20260510002529 20 133 1.6 16.1 0.00 3.56 3.56 100 1010.6
20260510002029 20 128 3.2 12.9 0.00 3.56 3.56 100 1010.6
20260510001530 20 140 6.4 12.9 0.00 3.56 3.56 100 1010.6
20260510001030 20 143 4.8 11.3 0.00 3.56 3.56 100 1010.6
20260510000531 20 141 6.4 11.3 0.00 3.56 3.56 100 1010.6
20260510000029 20 137 0.0 11.3 0.00 3.56 3.56 100 1010.6
20260509235529 20 142 1.6 11.3 0.00 3.56 3.56 100 1010.6
20260509235029 20 126 3.2 11.3 0.00 3.56 3.56 100 1010.6
20260509234536 20 112 0.0 6.4 0.00 3.56 3.56 100 1010.6
20260509234029 20 112 0.0 6.4 0.00 3.56 3.56 100 1010.7
20260509233529 20 111 1.6 6.4 0.00 3.56 3.56 100 1010.7
20260509233028 20 111 0.0 6.4 0.00 3.56 3.56 100 1010.7
20260509232528 20 111 0.0 0.0 0.00 3.56 3.56 100 1010.7
20260509232028 20 111 0.0 0.0 0.00 3.56 3.56 100 1010.7
20260509231528 20 111 0.0 1.6 0.00 3.56 3.56 100 1010.7
20260509231028 20 111 0.0 1.6 0.00 3.56 3.56 100 1010.7
20260509230528 20 109 0.0 1.6 0.00 3.56 3.56 100 1010.7
20260509230028 20 109 0.0 1.6 0.00 3.56 3.56 100 1010.7
20260509225527 20 109 0.0 0.0 0.00 3.56 3.56 100 1010.5
20260509225028 20 109 0.0 1.6 0.00 3.56 3.56 100 1010.5
20260509224527 20 109 0.0 1.6 0.03 3.56 3.56 100 1010.5
20260509224027 20 109 0.0 0.0 0.03 3.56 3.56 100 1010.6
20260509223527 20 109 0.0 1.6 0.03 3.56 3.56 100 1010.6
20260509223026 20 109 0.0 1.6 0.03 3.56 3.56 100 1010.6
20260509222526 20 109 0.0 1.6 0.05 3.56 3.56 100 1010.6
20260509222026 20 109 0.0 0.0 0.05 3.56 3.56 100 1010.6
20260509221526 20 109 0.0 0.0 0.05 3.56 3.56 100 1010.6
20260509221027 20 109 0.0 1.6 0.05 3.56 3.56 100 1010.4
20260509220526 20 109 0.0 3.2 0.08 3.56 3.56 100 1010.4
20260509220029 20 109 0.0 1.6 0.08 3.56 3.56 100 1010.4
20260509215526 20 109 0.0 1.6 0.08 3.58 3.56 100 1010.3
20260509215026 20 109 0.0 1.6 0.08 3.58 3.56 100 1010.3
20260509214526 20 109 0.0 4.8 0.05 3.56 3.53 100 1010.3
20260509214028 20 109 0.0 6.4 0.05 3.56 3.53 100 1010.5
20260509213525 20 109 0.0 6.4 0.05 3.56 3.53 100 1010.5
20260509213025 20 115 0.0 4.8 0.05 3.56 3.53 100 1010.5
20260509212524 20 115 0.0 4.8 0.03 3.53 3.51 100 1010.6
20260509212030 20 115 1.6 4.8 0.03 3.53 3.51 100 1010.6
20260509211525 20 115 0.0 6.4 0.03 3.53 3.51 100 1010.6
20260509211028 20 115 1.6 6.4 0.03 3.53 3.51 100 1010.5
20260509210525 20 115 1.6 8.0 0.00 3.51 3.48 100 1010.5
20260509210028 20 117 1.6 8.0 0.00 3.51 3.48 100 1010.5
20260509205525 20 117 4.8 8.0 0.00 4.04 3.48 100 1010.1
20260509205024 20 119 3.2 8.0 0.00 4.04 3.48 100 1010.1
20260509204524 20 121 1.6 11.3 0.00 4.04 3.48 100 1010.1
20260509204024 20 123 3.2 16.1 0.00 4.04 3.48 100 1009.7
20260509203523 20 119 6.4 16.1 0.00 4.04 3.48 100 1009.7
20260509203025 20 111 6.4 16.1 0.00 4.04 3.48 100 1009.7
20260509202523 20 128 6.4 19.3 0.00 4.04 3.48 100 1010.1
20260509202023 20 102 11.3 19.3 0.00 4.04 3.48 100 1010.1
20260509201523 20 100 11.3 17.7 0.00 4.04 3.48 100 1010.1
20260509201022 20 132 9.7 17.7 0.00 4.04 3.48 100 1010.5
20260509200522 20 107 6.4 17.7 0.00 4.04 3.48 100 1010.5
20260509200022 20 103 9.7 16.1 0.00 4.04 3.48 100 1010.5
20260509195527 20 72 8.0 14.5 0.00 4.78 3.48 100 1010.7
20260509195022 20 108 8.0 24.1 0.05 4.78 3.48 100 1010.7
20260509194525 20 103 9.7 24.1 0.05 4.78 3.48 100 1010.7
20260509194022 20 122 11.3 17.7 0.05 4.78 3.48 100 1011.1
20260509193522 20 102 6.4 16.1 0.05 4.78 3.48 100 1011.1
20260509193022 20 121 4.8 14.5 0.08 4.78 3.48 100 1011.1
20260509192521 20 98 9.7 14.5 0.15 4.78 3.48 100 1011.7
20260509192025 20 96 6.4 14.5 0.20 4.78 3.48 100 1011.7
20260509191520 20 117 3.2 6.4 0.28 4.78 3.48 100 1011.7
20260509191020 19 117 0.0 8.0 0.30 4.78 3.48 100 1011.7
20260509190520 19 119 1.6 11.3 0.36 4.78 3.48 100 1011.7
20260509190021 19 120 4.8 14.5 0.36 4.78 3.48 100 1011.7
20260509185522 19 132 1.6 14.5 0.36 4.75 3.45 100 1011.4
20260509185021 19 119 9.7 14.5 0.36 4.72 3.43 100 1011.4
20260509184532 19 126 6.4 12.9 0.41 4.72 3.43 100 1011.4
20260509184020 19 111 1.6 11.3 0.43 4.72 3.43 100 1012.2
20260509183520 19 111 4.8 11.3 0.48 4.72 3.43 100 1012.2
20260509183020 19 130 1.6 12.9 0.43 4.67 3.38 100 1012.2
20260509182520 19 134 6.4 12.9 0.41 4.62 3.33 100 1012.1
20260509182021 19 129 4.8 8.0 0.33 4.55 3.25 100 1012.1
20260509181520 19 128 3.2 11.3 0.28 4.50 3.20 100 1012.1
20260509181019 19 135 1.6 14.5 0.23 4.45 3.15 100 1011.2